Weather History for KIFA - October, 2012

Change the Weather History Date:

Saturday, October 13, 2012

  Actual Average Record
Temperature  
Mean Temperature 58 °F -  
Max Temperature 71 °F 62 °F 90 °F (1975)
Min Temperature 46 °F 39 °F 26 °F (1979)
Degree Days  
Heating Degree Days 7    
Growing Degree Days 8 (Base 50)    
Moisture  
Dew Point 54 °F    
Average Humidity 85    
Maximum Humidity 94    
Minimum Humidity 73    
Precipitation  
Precipitation 0.13 in - - ()
Sea Level Pressure  
Sea Level Pressure 29.81 in    
Wind  
Wind Speed 12 mph (South)    
Max Wind Speed 20 mph    
Max Gust Speed 26 mph    
Visibility 8 miles    
Events Rain    
Averages and records for this station are not official NWS values.
T = Trace of Precipitation, MM = Missing Value Source: NWS Daily Summary

Daily Weather History Graph

Daily Weather History Graph

Search for Another Location

Airport or City:

Trip Planner

Search our weather history database for the weather conditions in past years. The results will help you decide how hot, cold, wet, or windy it might be!

Date:

Astronomy

Oct. 13, 2012 Rise Set
Actual Time 7:24 AM CDT 6:33 PM CDT
Civil Twilight 6:55 AM CDT 7:01 PM CDT
Nautical Twilight 6:23 AM CDT 7:34 PM CDT
Astronomical Twilight 5:50 AM CDT 8:06 PM CDT
Moon 5:12 AM CDT (10/13) 5:18 PM CDT (10/13)
Length of Visible Light 12h 05m
Length of Day
11h 09m
Waning Crescent, 5% of the Moon is Illuminated
Oct 13
Waning Crescent
Oct 15
New
Oct 21
First Quarter
Oct 29
Full
Nov 6
Last Quarter

Hourly Weather History & Observations

Time (CDT) Temp. Dew Point Humidity Pressure Visibility Wind Dir Wind Speed Gust Speed Precip Events Conditions
12:15 AM 46.6 °F 39.4 °F 76% 30.07 in 10.0 mi SE 12.7 mph - N/A   Overcast
12:35 AM 47.1 °F 40.3 °F 77% 30.05 in 10.0 mi SE 12.7 mph - N/A   Overcast
12:55 AM 47.3 °F 41.0 °F 79% 30.05 in 10.0 mi SE 12.7 mph - N/A   Overcast
1:15 AM 47.7 °F 41.5 °F 79% 30.04 in 10.0 mi SE 11.5 mph 16.1 mph N/A   Overcast
1:35 AM 47.8 °F 42.1 °F 80% 30.03 in 10.0 mi SE 12.7 mph - N/A   Overcast
1:55 AM 48.2 °F 42.4 °F 80% 30.03 in 10.0 mi SE 11.5 mph - N/A   Overcast
2:15 AM 48.4 °F 42.8 °F 81% 30.01 in 10.0 mi SE 9.2 mph - N/A   Overcast
2:35 AM 48.9 °F 43.5 °F 82% 29.99 in 10.0 mi SE 10.4 mph - N/A   Overcast
3:35 AM 50.0 °F 44.8 °F 82% 29.96 in 10.0 mi SSE 13.8 mph - N/A   Overcast
4:15 AM 50.9 °F 45.5 °F 82% 29.94 in 10.0 mi SSE 13.8 mph - N/A   Overcast
4:35 AM 50.9 °F 45.5 °F 82% 29.93 in 10.0 mi SSE 15.0 mph - N/A   Overcast
4:55 AM 51.1 °F 45.7 °F 82% 29.93 in 10.0 mi SSE 16.1 mph - N/A   Overcast
5:15 AM 51.4 °F 45.9 °F 81% 29.92 in 10.0 mi SSE 13.8 mph 20.7 mph N/A   Overcast
5:35 AM 51.8 °F 46.4 °F 82% 29.90 in 10.0 mi SSE 15.0 mph 19.6 mph N/A   Overcast
5:55 AM 51.8 °F 46.6 °F 82% 29.90 in 10.0 mi SSE 12.7 mph 18.4 mph N/A   Overcast
6:15 AM 52.0 °F 47.1 °F 83% 29.90 in 10.0 mi SSE 15.0 mph - N/A   Overcast
6:35 AM 52.2 °F 47.7 °F 85% 29.88 in 10.0 mi SSE 10.4 mph - N/A Rain Rain
7:15 AM 51.3 °F 48.7 °F 91% 29.89 in 7.0 mi SSE 11.5 mph - N/A   Overcast
7:35 AM 51.4 °F 49.1 °F 92% 29.89 in 5.0 mi SSE 15.0 mph - N/A Rain Rain
7:55 AM 51.6 °F 49.5 °F 92% 29.88 in 5.0 mi South 11.5 mph 18.4 mph N/A Rain Rain
8:35 AM 52.2 °F 50.2 °F 93% 29.82 in 4.0 mi ESE 11.5 mph - N/A Rain Light Rain
9:15 AM 53.6 °F 52.0 °F 94% 29.84 in 7.0 mi SSE 16.1 mph 24.2 mph N/A   Overcast
9:55 AM 56.3 °F 54.5 °F 94% 29.83 in 10.0 mi South 16.1 mph 23.0 mph N/A   Overcast
10:15 AM 57.6 °F 55.6 °F 93% 29.82 in 10.0 mi SSE 15.0 mph 23.0 mph N/A   Overcast
10:35 AM 59.0 °F 56.8 °F 93% 29.82 in 10.0 mi South 17.3 mph 24.2 mph N/A   Overcast
11:35 AM 61.0 °F 58.8 °F 93% 29.79 in 4.0 mi South 19.6 mph 25.3 mph 0.01 in   Overcast
12:35 PM 61.9 °F 59.2 °F 91% 29.77 in 5.0 mi South 16.1 mph 26.5 mph 0.02 in   Overcast
1:15 PM 63.5 °F 60.1 °F 89% 29.76 in 4.0 mi South 15.0 mph 25.3 mph 0.01 in   Overcast
1:35 PM 64.4 °F 60.3 °F 86% 29.75 in 4.0 mi South 18.4 mph 23.0 mph 0.02 in   Overcast
1:55 PM 63.9 °F 60.1 °F 87% 29.74 in 3.0 mi South 16.1 mph 26.5 mph 0.04 in   Overcast
2:15 PM 63.7 °F 60.3 °F 89% 29.73 in 4.0 mi South 15.0 mph 21.9 mph 0.01 in   Overcast
2:35 PM 63.9 °F 60.3 °F 88% 29.73 in 4.0 mi South 13.8 mph - 0.01 in   Overcast
3:15 PM 66.2 °F 61.3 °F 84% 29.71 in 3.0 mi South 15.0 mph - N/A   Haze
3:55 PM 67.6 °F 61.7 °F 81% 29.71 in 7.0 mi South 12.7 mph 18.4 mph 0.02 in   Mostly Cloudy
4:15 PM 70.7 °F 62.6 °F 75% 29.69 in 7.0 mi SSW 11.5 mph - 0.01 in   Scattered Clouds
5:15 PM 70.7 °F 61.7 °F 73% 29.69 in 10.0 mi SSW 10.4 mph - N/A   Overcast
5:35 PM 70.3 °F 61.7 °F 74% 29.70 in 10.0 mi SSW 8.1 mph - 0.01 in   Overcast
5:55 PM 69.4 °F 61.7 °F 76% 29.69 in 10.0 mi South 6.9 mph - 0.01 in   Overcast
6:15 PM 69.1 °F 61.9 °F 78% 29.69 in 10.0 mi South 5.8 mph - 0.01 in   Overcast
6:35 PM 68.7 °F 61.7 °F 78% 29.69 in 10.0 mi South 6.9 mph - 0.01 in   Overcast
6:55 PM 67.6 °F 61.7 °F 81% 29.69 in 10.0 mi South 8.1 mph - 0.01 in   Mostly Cloudy
7:35 PM 67.5 °F 61.7 °F 82% 29.70 in 10.0 mi South 13.8 mph - N/A   Overcast
7:55 PM 66.4 °F 61.9 °F 85% 29.70 in 10.0 mi South 10.4 mph - N/A   Mostly Cloudy
8:15 PM 65.7 °F 61.9 °F 88% 29.71 in 10.0 mi South 8.1 mph - N/A   Overcast
8:35 PM 65.5 °F 62.1 °F 89% 29.69 in 10.0 mi South 8.1 mph - N/A   Overcast
9:15 PM 65.5 °F 62.4 °F 90% 29.70 in 10.0 mi South 9.2 mph - N/A   Overcast
9:35 PM 65.5 °F 62.6 °F 90% 29.70 in 7.0 mi South 9.2 mph - N/A   Overcast
9:55 PM 65.5 °F 62.6 °F 90% 29.71 in 7.0 mi South 9.2 mph - N/A   Overcast
10:15 PM 65.3 °F 62.6 °F 91% 29.69 in 7.0 mi SSW 6.9 mph - N/A   Overcast
10:35 PM 64.9 °F 62.2 °F 91% 29.68 in 7.0 mi South 4.6 mph - N/A   Mostly Cloudy
10:55 PM 64.4 °F 61.5 °F 90% 29.67 in 7.0 mi SW 3.5 mph - N/A   Scattered Clouds
11:15 PM 63.7 °F 61.2 °F 91% 29.67 in 7.0 mi Calm Calm - N/A   Mostly Cloudy
11:35 PM 63.9 °F 61.7 °F 93% 29.65 in 5.0 mi Calm Calm - N/A   Overcast